カタログに戻る

IRIDIUM 39

運用中通信PO
NORAD 25042·PAYLOAD·🇺🇸 United States

打ち上げ Nov 9, 1997 から Vandenberg Space Force Base

Loading…

次のパス (今後24時間)

TLE

最新Source: Space-Track

元期: Sep 14, 2026, 15:02 UTC

1 25042U 97069D   26257.62690226  .00000441  00000-0  10869-3 0  9995
2 25042  86.3950  16.1556 0016131 221.9073 138.0898 14.49842676514790

AllMySatでIRIDIUM 39をリアルタイム追跡

Download on the App Store